TimeCST,TemperatureF,Dew PointF,Humidity,Sea Level PressureIn,VisibilityMPH,Wind Direction,Wind SpeedMPH,Gust SpeedMPH,PrecipitationIn,Events,Conditions,WindDirDegrees,DateUTC
12:15 AM,19.4,12.2,74,29.38,2.5,SW,12.7,18.4,N/A,,Overcast,220,2014-01-04 06:15:00
12:35 AM,19.4,12.2,74,29.38,2.5,SSW,8.1,-,N/A,,Overcast,210,2014-01-04 06:35:00
12:55 AM,19.4,14.0,80,29.39,1.8,SSW,8.1,20.7,N/A,,Overcast,210,2014-01-04 06:55:00
1:15 AM,19.4,15.8,86,29.38,1.0,SSW,11.5,-,N/A,,Overcast,210,2014-01-04 07:15:00
1:35 AM,19.4,15.8,86,29.38,1.2,SSW,9.2,-,N/A,,Overcast,210,2014-01-04 07:35:00
1:55 AM,19.4,15.8,86,29.36,2.0,SSW,9.2,-,N/A,,Overcast,200,2014-01-04 07:55:00
2:15 AM,19.4,15.8,86,29.35,2.5,SSW,11.5,17.3,N/A,,Overcast,200,2014-01-04 08:15:00
2:35 AM,21.2,15.8,80,29.37,2.5,SSW,9.2,-,N/A,,Overcast,210,2014-01-04 08:35:00
2:55 AM,21.2,15.8,80,29.37,1.8,SSW,9.2,-,N/A,,Overcast,210,2014-01-04 08:55:00
3:15 AM,21.2,15.8,80,29.37,2.0,SSW,11.5,-,N/A,,Overcast,210,2014-01-04 09:15:00
3:35 AM,21.2,15.8,80,29.38,4.0,SW,13.8,-,N/A,,Overcast,220,2014-01-04 09:35:00
3:55 AM,21.2,17.6,86,29.38,3.0,SW,10.4,18.4,N/A,,Overcast,220,2014-01-04 09:55:00
4:15 AM,21.2,17.6,86,29.38,2.0,SW,10.4,-,N/A,,Overcast,230,2014-01-04 10:15:00
4:35 AM,21.2,17.6,86,29.39,2.5,SW,11.5,-,N/A,,Overcast,230,2014-01-04 10:35:00
4:55 AM,21.2,17.6,86,29.39,3.0,SW,10.4,-,N/A,,Overcast,230,2014-01-04 10:55:00
5:15 AM,21.2,17.6,86,29.41,7.0,WSW,11.5,-,N/A,,Overcast,240,2014-01-04 11:15:00
5:35 AM,21.2,17.6,86,29.43,7.0,West,10.4,-,N/A,,Overcast,260,2014-01-04 11:35:00
5:55 AM,23.0,19.4,86,29.45,9.0,West,13.8,-,N/A,,Overcast,260,2014-01-04 11:55:00
6:15 AM,23.0,19.4,86,29.46,5.0,West,13.8,18.4,N/A,,Overcast,270,2014-01-04 12:15:00
6:35 AM,23.0,19.4,86,29.48,2.5,WNW,13.8,19.6,N/A,,Overcast,300,2014-01-04 12:35:00
6:55 AM,21.2,17.6,86,29.50,3.0,WNW,17.3,-,N/A,,Overcast,300,2014-01-04 12:55:00
7:15 AM,21.2,17.6,86,29.52,7.0,NW,16.1,20.7,N/A,,Overcast,310,2014-01-04 13:15:00
7:35 AM,21.2,15.8,80,29.54,10.0,WNW,12.7,19.6,N/A,,Overcast,300,2014-01-04 13:35:00
7:55 AM,19.4,14.0,80,29.57,10.0,NW,13.8,-,N/A,,Overcast,310,2014-01-04 13:55:00
8:15 AM,19.4,10.4,68,29.59,5.0,WNW,18.4,25.3,N/A,,Overcast,300,2014-01-04 14:15:00
8:35 AM,17.6,10.4,73,29.63,7.0,WNW,17.3,25.3,N/A,,Overcast,300,2014-01-04 14:35:00
8:55 AM,15.8,10.4,79,29.64,3.0,WNW,16.1,24.2,N/A,,Overcast,300,2014-01-04 14:55:00
9:15 AM,15.8,8.6,73,29.66,3.0,WNW,13.8,-,N/A,,Overcast,300,2014-01-04 15:15:00
9:35 AM,15.8,6.8,68,29.68,2.5,WNW,13.8,25.3,N/A,,Overcast,300,2014-01-04 15:35:00
9:55 AM,14.0,6.8,73,29.69,2.5,WNW,11.5,20.7,N/A,,Overcast,300,2014-01-04 15:55:00
10:15 AM,12.2,6.8,79,29.70,2.5,WNW,15.0,-,N/A,,Overcast,300,2014-01-04 16:15:00
10:35 AM,12.2,6.8,79,29.73,1.2,West,13.8,19.6,N/A,,Overcast,280,2014-01-04 16:35:00
10:55 AM,12.2,6.8,79,29.74,1.8,WNW,10.4,18.4,N/A,,Overcast,290,2014-01-04 16:55:00
11:15 AM,12.2,6.8,79,29.74,1.2,West,12.7,-,N/A,,Overcast,280,2014-01-04 17:15:00
11:35 AM,12.2,6.8,79,29.75,1.2,West,16.1,-,N/A,,Overcast,280,2014-01-04 17:35:00
11:55 AM,12.2,6.8,79,29.75,1.0,West,13.8,-,N/A,,Overcast,280,2014-01-04 17:55:00
12:15 PM,10.4,3.2,73,29.76,1.8,West,16.1,-,N/A,,Overcast,280,2014-01-04 18:15:00
12:35 PM,10.4,3.2,73,29.77,2.5,WNW,13.8,-,N/A,,Overcast,290,2014-01-04 18:35:00
12:55 PM,12.2,3.2,67,29.78,3.0,West,19.6,-,N/A,,Overcast,270,2014-01-04 18:55:00
1:15 PM,10.4,5.0,79,29.79,5.0,WNW,13.8,24.2,N/A,,Overcast,290,2014-01-04 19:15:00
1:35 PM,10.4,1.4,67,29.79,5.0,West,13.8,-,N/A,,Overcast,280,2014-01-04 19:35:00
1:55 PM,12.2,3.2,67,29.78,5.0,West,12.7,-,N/A,,Overcast,280,2014-01-04 19:55:00
2:15 PM,12.2,1.4,62,29.79,9.0,WNW,13.8,18.4,N/A,,Overcast,290,2014-01-04 20:15:00
2:35 PM,12.2,1.4,62,29.83,10.0,West,12.7,-,N/A,,Overcast,280,2014-01-04 20:35:00
2:55 PM,12.2,3.2,67,29.83,10.0,West,11.5,18.4,N/A,,Overcast,280,2014-01-04 20:55:00
3:15 PM,12.2,1.4,62,29.86,9.0,West,16.1,-,N/A,,Overcast,280,2014-01-04 21:15:00
3:35 PM,10.4,1.4,67,29.87,10.0,WNW,12.7,18.4,N/A,,Overcast,290,2014-01-04 21:35:00
3:55 PM,10.4,3.2,73,29.88,9.0,West,11.5,-,N/A,,Overcast,280,2014-01-04 21:55:00
4:15 PM,10.4,1.4,67,29.90,10.0,West,10.4,-,N/A,,Overcast,280,2014-01-04 22:15:00
4:35 PM,10.4,1.4,67,29.91,10.0,West,13.8,-,N/A,,Overcast,270,2014-01-04 22:35:00
4:55 PM,10.4,1.4,67,29.92,10.0,West,12.7,-,N/A,,Overcast,270,2014-01-04 22:55:00
5:15 PM,8.6,-0.4,67,29.93,10.0,West,12.7,-,N/A,,Overcast,270,2014-01-04 23:15:00
5:35 PM,8.6,-0.4,67,29.93,10.0,West,10.4,-,N/A,,Overcast,260,2014-01-04 23:35:00
5:55 PM,8.6,-0.4,67,29.94,10.0,West,13.8,-,N/A,,Overcast,270,2014-01-04 23:55:00
6:15 PM,8.6,-0.4,67,29.95,10.0,WSW,12.7,-,N/A,,Overcast,250,2014-01-05 00:15:00
6:35 PM,8.6,1.4,73,29.95,10.0,West,12.7,-,N/A,,Overcast,260,2014-01-05 00:35:00
6:55 PM,8.6,-0.4,67,29.97,10.0,West,13.8,-,N/A,,Overcast,260,2014-01-05 00:55:00
7:15 PM,8.6,1.4,73,29.97,10.0,West,12.7,-,N/A,,Overcast,270,2014-01-05 01:15:00
7:35 PM,8.6,-0.4,67,29.97,10.0,West,12.7,-,N/A,,Overcast,270,2014-01-05 01:35:00
7:55 PM,8.6,-2.2,62,29.97,10.0,WNW,10.4,-,N/A,,Overcast,290,2014-01-05 01:55:00
8:15 PM,8.6,1.4,73,29.98,10.0,NW,11.5,-,N/A,,Overcast,310,2014-01-05 02:15:00
8:35 PM,8.6,-0.4,67,30.00,10.0,WNW,10.4,-,N/A,,Overcast,290,2014-01-05 02:35:00
8:55 PM,8.6,-0.4,67,30.00,10.0,West,10.4,-,N/A,,Overcast,260,2014-01-05 02:55:00
9:15 PM,6.8,-0.4,72,30.00,10.0,West,11.5,-,N/A,,Overcast,270,2014-01-05 03:15:00
9:35 PM,6.8,-2.2,67,30.00,10.0,West,8.1,-,N/A,,Overcast,270,2014-01-05 03:35:00
9:55 PM,6.8,-2.2,67,30.02,10.0,WSW,13.8,-,N/A,,Overcast,250,2014-01-05 03:55:00
10:15 PM,5.0,-2.2,72,30.02,8.0,West,16.1,-,N/A,,Overcast,270,2014-01-05 04:15:00
10:35 PM,5.0,-4.0,66,30.03,6.0,West,16.1,19.6,N/A,,Overcast,260,2014-01-05 04:35:00
10:55 PM,3.2,-2.2,78,30.03,8.0,West,15.0,-,N/A,,Overcast,260,2014-01-05 04:55:00
11:15 PM,3.2,-4.0,72,30.04,8.0,West,10.4,-,N/A,,Overcast,260,2014-01-05 05:15:00
11:35 PM,3.2,-5.8,66,30.04,10.0,West,15.0,-,N/A,,Overcast,270,2014-01-05 05:35:00
11:55 PM,1.4,-5.8,72,30.05,10.0,West,15.0,-,N/A,,Overcast,260,2014-01-05 05:55:00